TimeEDT,TemperatureF,Dew PointF,Humidity,Sea Level PressureIn,VisibilityMPH,Wind Direction,Wind SpeedMPH,Gust SpeedMPH,PrecipitationIn,Events,Conditions,WindDirDegrees,DateUTC
12:15 AM,64.0,61.7,92,29.82,5.0,East,4.6,-,N/A,Rain,Light Rain,90,2013-10-06 04:15:00
12:35 AM,64.0,61.7,92,29.81,5.0,East,3.5,-,N/A,Rain,Heavy Rain,90,2013-10-06 04:35:00
12:54 AM,64.0,61.7,92,29.80,10.0,East,6.9,-,N/A,Rain,Rain,100,2013-10-06 04:54:00
1:15 AM,64.0,61.7,92,29.80,10.0,East,4.6,-,N/A,,Light Drizzle,100,2013-10-06 05:15:00
1:35 AM,64.0,61.7,92,29.80,10.0,East,5.8,-,N/A,,Overcast,100,2013-10-06 05:35:00
1:54 AM,64.0,61.7,92,29.79,7.0,East,5.8,-,N/A,,Overcast,100,2013-10-06 05:54:00
2:15 AM,64.0,61.7,92,29.78,4.0,East,5.8,-,N/A,,Overcast,100,2013-10-06 06:15:00
2:35 AM,64.0,61.7,92,29.78,4.0,ESE,4.6,-,N/A,Rain,Rain,120,2013-10-06 06:35:00
2:54 AM,64.0,61.7,92,29.77,4.0,East,4.6,-,N/A,,Overcast,100,2013-10-06 06:54:00
3:15 AM,64.0,61.7,92,29.76,5.0,East,4.6,-,N/A,,Overcast,90,2013-10-06 07:15:00
3:35 AM,64.2,61.9,92,29.76,2.5,ESE,3.5,-,N/A,,Overcast,110,2013-10-06 07:35:00
3:55 AM,64.0,61.7,92,29.75,1.0,SSE,3.5,-,N/A,,Overcast,150,2013-10-06 07:55:00
4:15 AM,64.4,62.1,92,29.75,2.0,South,3.5,-,N/A,,Overcast,170,2013-10-06 08:15:00
4:34 AM,64.8,62.6,93,29.75,10.0,South,4.6,-,N/A,,Overcast,190,2013-10-06 08:34:00
4:55 AM,64.8,62.6,93,29.73,7.0,South,3.5,-,N/A,,Overcast,170,2013-10-06 08:55:00
5:15 AM,64.4,62.1,92,29.74,7.0,South,4.6,-,N/A,,Overcast,190,2013-10-06 09:15:00
5:34 AM,64.6,62.1,92,29.74,7.0,South,4.6,-,N/A,,Overcast,170,2013-10-06 09:34:00
5:55 AM,64.4,61.7,91,29.73,7.0,South,4.6,-,N/A,,Overcast,170,2013-10-06 09:55:00
6:15 AM,64.4,61.9,92,29.73,7.0,SSE,3.5,-,N/A,,Overcast,150,2013-10-06 10:15:00
6:34 AM,64.4,61.9,92,29.73,5.0,SSE,4.6,-,N/A,,Overcast,160,2013-10-06 10:34:00
6:55 AM,64.4,61.9,92,29.73,4.0,SE,5.8,-,N/A,,Overcast,140,2013-10-06 10:55:00
7:15 AM,64.6,62.1,92,29.72,3.0,SSE,4.6,-,N/A,,Overcast,150,2013-10-06 11:15:00
7:34 AM,64.8,62.2,92,29.72,5.0,SSE,5.8,-,N/A,,Overcast,160,2013-10-06 11:34:00
7:55 AM,64.8,62.2,92,29.72,5.0,SSE,3.5,-,N/A,,Overcast,160,2013-10-06 11:55:00
8:15 AM,64.8,62.1,91,29.71,5.0,SSE,5.8,-,N/A,,Overcast,150,2013-10-06 12:15:00
8:34 AM,65.3,62.4,90,29.71,7.0,SSE,9.2,-,N/A,,Overcast,150,2013-10-06 12:34:00
8:55 AM,65.3,62.4,90,29.71,7.0,SSE,4.6,-,N/A,,Overcast,160,2013-10-06 12:55:00
9:15 AM,65.3,62.2,90,29.70,10.0,SSE,6.9,-,N/A,,Overcast,150,2013-10-06 13:15:00
9:34 AM,65.3,62.2,90,29.69,5.0,SSE,8.1,-,N/A,Rain,Rain,150,2013-10-06 13:34:00
9:55 AM,65.3,62.2,90,29.69,10.0,SSE,8.1,-,N/A,,Overcast,150,2013-10-06 13:55:00
10:15 AM,66.4,63.3,90,29.68,10.0,SSE,9.2,-,N/A,,Overcast,160,2013-10-06 14:15:00
10:34 AM,66.2,62.8,89,29.68,5.0,South,8.1,-,N/A,Rain,Rain,170,2013-10-06 14:34:00
10:55 AM,62.8,59.9,90,29.69,10.0,WSW,9.2,-,N/A,,Overcast,250,2013-10-06 14:55:00
11:15 AM,61.7,58.6,90,29.70,10.0,WSW,9.2,-,N/A,,Overcast,240,2013-10-06 15:15:00
11:35 AM,61.7,58.6,90,29.69,10.0,WSW,8.1,-,N/A,,Overcast,240,2013-10-06 15:35:00
11:55 AM,61.7,58.5,89,29.69,10.0,SW,6.9,-,N/A,,Overcast,230,2013-10-06 15:55:00
12:15 PM,62.1,58.3,87,29.69,10.0,SW,8.1,-,N/A,,Overcast,230,2013-10-06 16:15:00
12:35 PM,61.7,58.1,88,29.70,5.0,WSW,6.9,-,N/A,,Overcast,250,2013-10-06 16:35:00
12:55 PM,59.0,56.3,91,29.70,2.0,SW,8.1,17.3,N/A,Rain,Light Rain,230,2013-10-06 16:55:00
1:15 PM,59.0,56.3,91,29.70,7.0,WSW,9.2,-,N/A,Rain,Light Rain,240,2013-10-06 17:15:00
1:35 PM,59.0,55.9,90,29.70,7.0,West,9.2,-,N/A,Rain,Rain,260,2013-10-06 17:35:00
1:55 PM,57.7,54.9,90,29.69,4.0,WSW,10.4,-,N/A,Rain,Rain,240,2013-10-06 17:55:00
2:14 PM,58.3,55.2,90,29.69,10.0,SW,6.9,-,N/A,Rain,Light Rain,230,2013-10-06 18:14:00
2:35 PM,57.7,54.7,90,29.69,10.0,WSW,9.2,-,N/A,,Light Drizzle,240,2013-10-06 18:35:00
2:55 PM,56.5,53.6,90,29.68,10.0,WSW,4.6,-,N/A,,Drizzle,250,2013-10-06 18:55:00
3:14 PM,56.5,53.6,90,29.67,5.0,Calm,Calm,-,N/A,Rain,Light Rain,0,2013-10-06 19:14:00
3:35 PM,56.8,53.8,89,29.67,10.0,SW,4.6,-,N/A,Rain,Light Rain,230,2013-10-06 19:35:00
3:55 PM,56.5,53.6,90,29.66,7.0,WSW,5.8,-,N/A,Rain,Rain,240,2013-10-06 19:55:00
4:14 PM,56.5,53.6,90,29.66,5.0,WSW,6.9,-,N/A,,Heavy Drizzle,240,2013-10-06 20:14:00
4:35 PM,56.5,53.1,88,29.66,10.0,SW,4.6,-,N/A,,Drizzle,220,2013-10-06 20:35:00
4:55 PM,56.5,52.9,88,29.65,10.0,WSW,5.8,-,N/A,,Overcast,250,2013-10-06 20:55:00
5:14 PM,56.5,52.7,87,29.66,10.0,WSW,8.1,-,N/A,,Overcast,240,2013-10-06 21:14:00
5:35 PM,56.5,52.5,87,29.67,10.0,WSW,5.8,-,N/A,,Overcast,240,2013-10-06 21:35:00
5:55 PM,56.5,52.3,86,29.67,10.0,WSW,5.8,-,N/A,,Overcast,250,2013-10-06 21:55:00
6:14 PM,56.5,52.7,87,29.66,10.0,WSW,3.5,-,N/A,,Scattered Clouds,240,2013-10-06 22:14:00
6:35 PM,56.5,52.2,85,29.67,10.0,WSW,5.8,-,N/A,,Clear,240,2013-10-06 22:35:00
6:55 PM,56.5,52.3,86,29.67,10.0,WSW,4.6,-,N/A,,Scattered Clouds,250,2013-10-06 22:55:00
7:14 PM,56.5,52.7,87,29.67,10.0,SW,3.5,-,N/A,,Mostly Cloudy,230,2013-10-06 23:14:00
7:35 PM,54.0,50.5,88,29.66,10.0,WSW,3.5,-,N/A,,Mostly Cloudy,240,2013-10-06 23:35:00
7:55 PM,54.0,50.5,88,29.66,10.0,Calm,Calm,-,N/A,,Overcast,0,2013-10-06 23:55:00
8:14 PM,54.0,50.9,89,29.68,10.0,WSW,5.8,-,N/A,,Overcast,240,2013-10-07 00:14:00
8:35 PM,54.0,50.9,89,29.68,10.0,WSW,5.8,-,N/A,,Overcast,240,2013-10-07 00:35:00
8:55 PM,54.0,50.4,88,29.68,10.0,WSW,6.9,-,N/A,,Overcast,240,2013-10-07 00:55:00
9:14 PM,51.6,47.5,86,29.67,10.0,WSW,5.8,-,N/A,,Scattered Clouds,240,2013-10-07 01:14:00
9:35 PM,51.4,47.5,86,29.67,10.0,SW,4.6,-,N/A,,Clear,230,2013-10-07 01:35:00
9:55 PM,51.4,47.3,86,29.67,10.0,SW,4.6,-,N/A,,Clear,220,2013-10-07 01:55:00
10:14 PM,51.4,46.6,83,29.67,10.0,SW,5.8,-,N/A,,Clear,230,2013-10-07 02:14:00
10:35 PM,51.4,46.4,83,29.67,10.0,WSW,5.8,-,N/A,,Clear,240,2013-10-07 02:35:00
10:55 PM,49.1,44.8,85,29.67,10.0,Calm,Calm,-,N/A,,Clear,0,2013-10-07 02:55:00
11:14 PM,46.8,43.2,87,29.67,10.0,Calm,Calm,-,N/A,,Clear,0,2013-10-07 03:14:00
11:35 PM,45.5,42.3,88,29.67,10.0,Calm,Calm,-,N/A,,Clear,0,2013-10-07 03:35:00
11:54 PM,44.8,41.9,90,29.66,10.0,Calm,Calm,-,N/A,,Clear,0,2013-10-07 03:54:00